SCP
-0 -0 -0 -0 0 -0 -0 -0 0 0 0 0 0 0 0 0 0 0 0 0 0 0 0 0 0 0 0 0 0 0 0 0 0 0 0 0 0 0 -0 0 0 0 0 0
-0 -0 -0 -0 -0 0 0 0 0 -0 0 0 0 0 0 0 0 0 0 0 0 0 0 0 0 0 0 0 0 0 0 0 0 0 0 0 0 -0 -0 -0 -0 0 0 0
-0 -0 -0 -0 -0 0 0 0 0 0 0 0 0 0 0 0 0 0 0 0 0 0 0 0 0 0 0 0 0 0 0 0 0 0 0 0 0 0 -0 0 0 0 0 0
-0 -0 -0 -0 -0 -0 0 0 0 0 0 0 0 0 0 0 0 0 0 0 0 0 0 0 0 0 0 0 0 0 0 0 0 0 0 0 0 0 0 0 0 -0 0 0
-0 -0 -0 -0 -0 0 0 0 0 0 0 0 0 0 0 0 0 0 0 0 0 0 0 0 0 0 0 0 0 0 0 0 0 0 0 0 0 0 0 0 0 0 0 0
-0 -0 -0 -0 -0 0 0 0 0 0 0 0 0 0 0 0 0 0 0 0 0 0 0 0 0 0 0 0 0 0 0 0 0 0 0 0 0 0 0 0 0 0 0 0
-0 -0 -0 -0 -0 0 0 0 0 0 0 0 0 0 0 0 0 0 0 0 0 0 0 0 0 0 0 0 0 0 0 0 0 0 0 0 0 0 0 0 0 0 0 0
-0 -0 -0 -0 -0 -0 0 0 0 0 0 0 0 0 0 0 0 0 0 0 0 0 0 0 0 0 0 0 0 0 0 0 0 0 0 0 0 0 0 0 0 0 0 0
-0 -0 -0 -0 -0 0 0 0 0 0 0 0 0 0 0 0 0 0 0 0 0 0 0 0 0 0 0 0 0 0 -0 0 0 0 0 0 0 -0 0 0 0 0 0 0
-0 -0 -0 -0 0 0 0 0 0 0 0 0 0 0 0 0 0 0 0 0 0 0 0 0 0 0 0 0 0 0 0 0 0 0 0 0 0 0 0 0 0 0 0 0
-0 -0 -0 -0 0 0 0 0 0 0 0 0 0 0 0 0 0 0 0 0 0 0 0 0 0 0 0 0 0 0 0 0 0 0 0 0 0 0 0 0 0 0 0 0
-0 -0 -0 0 0 0 0 0 0 0 0 0 0 0 0 0 0 0 0 0 0 0 0 0 0 0 -0 0 0 0 0 0 0 0 -0 -0 0 0 0 -0 0 -0 0 0
-0 -0 -0 0 -0 -0 0 0 0 0 0 0 0 0 0 0 0 0 0 0 0 0 0 0 0 0 0 -0 0 0 0 0 0 0 -0 -0 0 0 -0 -0 -0 -0 0 0
-0 -0 -0 0 0 0 -0 0 0 0 0 0 0 0 0 0 0 0 0 0 0 0 0 0 0 0 0 0 0 0 -0 -0 -0 -0 -0 0 0 0 0 -0 0 0 0 -0
-0 -0 -0 0 0 0 0 0 0 0 0 0 0 0 0 0 0 0 0 0 0 0 0 0 0 0 0 0 0 0 0 0 -0 -0 -0 0 0 0 0 0 0 0 0 0
-0 -0 0 0 -0 -0 0 0 0 0 0 0 0 0 0 0 0 0 0 0 0 0 0 0 0 0 0 0 0 0 0 0 0 0 0 0 0 0 -0 0 0 0 0 0
-0 -0 0 0 -0 0 0 0 0 0 0 0 0 0 0 0 0 0 0 0 0 0 0 0 0 0 0 0 0 0 0 0 0 0 0 0 0 0 0 0 0 0 0 0
-0 -0 0 0 -0 0 0 0 0 0 0 0 0 0 0 0 0 0 0 0 0 0 0 0 0 0 0 0 0 0 0 0 0 0 0 0 0 0 0 0 0 0 0 0
-0 0 -0 0 0 0 0 0 0 0 0 0 0 0 0 0 0 0 0 0 0 0 0 0 0 -0 0 0 0 0 0 0 0 0 0 0 0 0 0 0 0 0 0 0
0 0 0 0 0 0 0 0 0 0 0 0 0 0 0 0 0 0 0 0 0 0 0 0 0 0 0 0 0 0 0 0 0 0 0 0 0 0 0 0 -0 0 0 0
0 0 0 0 -0 0 0 0 0 0 0 0 0 0 0 0 0 0 0 0 0 0 0 0 0 0 0 0 0 0 0 0 0 0 0 0 0 0 0 -0 -0 -0 0 0
0 0 0 0 0 0 0 0 0 0 0 0 0 0 0 0 0 0 0 0 0 0 0 0 0 0 0 0 0 0 0 0 0 0 0 0 0 0 0 0 0 0 0 0
0 0 0 0 0 0 0 0 0 0 0 0 0 0 0 0 0 0 0 0 0 0 0 0 0 0 0 0 0 0 0 0 0 0 0 0 0 0 0 0 0 0 0 0
0 0 0 0 0 0 0 0 0 0 0 0 0 0 0 0 0 0 0 0 0 0 0 0 0 0 -0 0 0 0 0 0 0 -0 0 0 0 0 0 0 0 0 0 0
0 0 0 0 0 0 0 0 0 0 0 0 0 0 0 0 0 0 0 0 0 0 0 0 0 0 0 0 0 0 0 0 0 0 0 0 0 0 0 0 0 0 0 0
0 0 0 0 0 0 0 0 0 0 0 0 0 0 0 0 0 0 0 0 0 0 0 0 0 0 0 0 -0 0 -0 0 0 0 0 0 0 0 0 0 0 0 0 0
0 0 0 0 0 0 0 0 0 0 0 0 0 0 0 0 0 0 0 0 0 0 0 0 0 0 0 0 -0 0 -0 0 0 0 0 0 0 0 0 0 0 0 0 0
Wind_Speed_500mb
58 52 50 42 29 21 19 6 7 6 9 8 4 2 7 28 25 38 19 14 11 5 9 7 6 10 8 10 4 6 6 9 5 34 11 18 11 5 8 8 8 4 6 7
61 50 51 41 37 32 20 5 5 7 1 3 7 15 21 27 26 24 18 18 16 12 11 9 11 13 30 33 12 6 3 2 1 12 8 9 12 3 8 7 5 3 6 6
67 59 43 40 36 32 26 8 7 8 14 24 3 8 16 22 41 28 31 11 14 13 14 9 10 15 18 25 19 18 13 4 7 10 4 6 1 3 6 12 8 11 6 14
66 68 64 45 34 32 10 15 6 13 9 18 28 21 14 24 20 27 38 15 10 4 10 14 13 10 14 23 25 20 7 2 4 5 7 5 15 19 9 16 10 15 21 29
65 64 66 64 49 31 51 12 11 25 28 18 37 16 13 21 26 16 24 19 11 16 8 1 11 9 5 12 14 14 8 10 14 15 11 6 10 38 22 15 8 11 38 11
65 61 60 61 61 54 33 33 26 15 35 27 12 11 14 23 29 26 26 23 14 16 17 47 46 46 38 21 7 5 6 8 5 9 7 12 12 27 28 7 23 4 17 12
59 58 53 55 55 61 58 49 27 13 6 14 11 28 22 19 25 5 23 33 6 22 62 51 40 28 28 35 29 25 6 5 5 7 6 6 8 17 19 21 35 28 26 27
52 51 47 46 50 46 59 50 36 10 3 17 28 39 32 28 45 17 17 37 38 42 36 8 12 12 10 8 14 23 21 2 6 6 3 11 11 18 14 16 27 27 28 31
44 42 43 34 42 42 33 45 36 23 11 10 19 17 30 7 11 20 20 43 31 40 8 8 6 6 8 14 6 8 2 7 9 4 5 2 10 7 14 14 10 28 39 27
38 35 36 33 30 30 39 35 34 22 12 11 20 13 9 19 24 4 18 41 26 42 10 8 8 3 2 4 7 8 8 7 8 4 3 5 3 19 13 6 13 10 38 24
34 30 29 31 23 28 33 36 29 25 4 7 14 18 22 22 17 3 26 11 18 12 12 7 6 7 6 5 5 9 4 4 2 5 5 4 11 8 6 8 16 16 20 16
31 29 24 24 27 21 27 32 30 28 3 5 5 10 13 15 17 18 10 4 10 9 6 6 3 5 6 3 5 11 7 4 7 7 8 9 11 16 23 22 17 12 17 15
29 28 26 22 19 22 25 22 27 41 8 5 5 12 6 10 15 17 9 8 7 7 5 7 3 4 4 5 6 6 12 2 7 7 6 2 16 14 17 14 14 15 28 19
29 28 26 24 20 18 20 20 16 29 11 3 7 9 13 15 13 14 19 24 21 17 6 3 4 1 5 3 6 3 6 6 7 4 2 13 20 22 24 24 19 14 13 13
29 28 27 24 21 19 16 9 7 25 15 5 15 26 7 15 16 14 18 29 27 19 7 4 4 3 5 6 4 6 4 7 6 9 18 8 17 10 11 17 15 13 13 13
29 28 27 27 21 15 10 3 8 26 20 5 5 10 15 22 25 25 25 22 23 14 7 6 6 6 6 5 2 8 22 27 18 12 25 22 16 15 14 14 12 18 14 10
30 28 26 24 17 10 8 3 17 21 20 4 8 10 9 10 19 20 30 17 5 5 3 5 4 5 10 6 5 10 29 22 23 25 27 19 20 12 14 13 14 14 13 12
29 27 21 16 13 15 9 15 22 18 12 7 2 8 5 6 10 10 10 11 5 2 4 6 4 7 4 1 14 13 27 21 22 18 14 15 14 12 23 17 17 19 17 17
28 23 25 18 7 7 20 34 26 22 11 5 3 4 6 13 19 14 12 7 7 2 4 5 2 4 3 12 21 34 31 25 18 19 14 15 8 13 21 22 17 12 4 12
32 18 8 4 4 27 28 7 5 6 7 8 6 4 4 19 19 12 9 3 6 1 8 2 5 6 14 12 10 36 32 29 28 30 16 9 9 6 8 3 13 5 2 3
32 19 7 25 24 11 4 6 7 7 4 7 3 14 5 23 5 7 6 3 3 2 6 5 3 6 10 10 18 20 20 19 16 12 10 10 8 4 5 8 8 5 4 4
38 34 35 16 6 5 2 6 7 2 5 2 8 13 14 13 7 2 8 3 3 5 9 5 5 7 9 14 14 12 25 20 13 14 14 13 14 11 11 6 8 11 15 9
28 7 6 5 4 6 4 4 7 5 5 7 19 21 27 8 7 2 3 3 7 6 4 5 8 13 12 9 16 18 18 17 15 15 15 18 18 17 22 17 13 10 9 11
8 5 8 7 7 8 9 10 10 12 8 16 22 30 8 9 6 5 5 6 3 6 6 6 10 19 27 22 21 20 21 23 25 20 16 18 4 9 10 24 22 14 15 14
8 9 7 11 19 20 33 29 12 12 4 6 17 12 3 6 6 3 5 5 1 7 7 6 14 23 39 33 28 29 26 21 24 24 21 15 7 8 15 15 11 13 17 13
9 14 9 21 15 21 32 17 4 14 3 8 2 2 5 3 5 2 5 3 8 8 10 25 30 35 34 46 36 29 38 28 29 27 24 22 14 11 8 17 20 18 13 9
10 16 26 37 34 32 37 22 14 19 10 3 4 1 7 3 3 4 7 9 8 25 36 31 33 31 32 25 37 28 24 34 31 26 18 29 24 14 17 22 13 13 15 12
Wind_Direction_500mb
28 25 15 15 28 30 12 31 41 108 180 23 13 297 260 351 24 29 9 37 12 43 311 301 320 322 250 2 34 302 259 143 204 271 310 73 84 33 61 91 348 356 88 296
29 29 25 32 24 21 14 42 60 105 251 50 328 320 8 52 32 29 7 10 27 351 15 345 25 356 6 20 46 42 9 299 55 303 256 89 27 337 149 91 67 59 123 241
29 29 25 24 16 21 42 47 36 43 45 40 61 39 8 3 21 21 12 14 36 20 360 8 344 359 352 25 25 8 26 126 154 202 20 193 270 275 178 121 129 168 206 161
30 28 29 24 11 3 37 42 42 22 344 15 55 69 359 18 10 351 12 351 10 62 24 354 353 360 332 339 16 14 78 278 330 262 299 336 30 5 246 197 197 170 184 177
29 30 29 31 36 52 59 65 18 62 22 6 53 16 345 17 355 2 347 346 304 72 78 270 292 317 314 264 329 8 345 306 343 307 315 347 71 13 360 16 14 256 168 178
28 29 32 32 36 40 45 46 36 94 12 22 43 20 35 21 16 2 31 13 3 28 341 316 302 292 279 251 323 258 225 181 90 279 266 304 23 356 9 330 6 264 168 189
27 27 33 39 40 45 48 39 34 76 1 45 30 22 18 11 4 331 351 2 44 320 331 325 315 309 286 99 35 30 360 125 116 224 333 212 158 8 357 39 22 21 82 113
21 25 29 34 38 42 44 42 46 86 93 21 15 11 4 8 5 353 340 350 330 330 308 330 359 340 29 76 40 25 16 32 56 85 339 119 3 8 356 348 38 52 66 75
12 22 26 33 31 35 48 44 37 54 92 348 24 342 2 355 338 339 332 348 359 7 7 26 46 9 306 9 11 15 6 57 98 6 81 154 227 254 348 343 6 5 79 50
9 18 26 29 34 43 37 42 41 56 92 49 18 24 323 5 359 293 310 341 343 9 13 22 33 8 255 54 306 328 340 3 82 62 141 294 254 268 311 162 201 134 120 130
8 12 17 22 33 35 32 42 29 23 88 61 26 10 12 6 6 74 315 360 358 10 29 32 335 16 342 18 1 326 52 72 16 43 61 334 314 299 218 163 151 123 124 129
1 2 2 7 19 19 23 29 33 11 61 20 4 340 8 353 9 11 14 28 351 8 55 23 19 354 6 354 347 330 26 148 157 128 209 248 337 78 124 149 161 168 172 150
351 348 349 347 356 0 7 9 6 22 342 320 298 323 303 336 349 1 20 302 308 331 17 150 178 25 106 3 311 358 354 118 97 75 318 343 63 125 137 149 145 151 187 159
343 343 340 335 336 334 338 351 351 0 353 282 287 249 306 255 332 305 310 303 284 271 294 149 138 171 166 245 226 121 255 11 131 45 307 79 113 112 114 127 120 138 133 169
334 337 336 331 329 328 328 285 333 352 4 268 287 305 298 237 264 288 285 282 292 262 210 170 212 174 75 350 63 332 334 176 125 215 206 182 140 135 156 134 138 153 153 173
327 329 331 332 327 338 353 199 258 335 349 270 314 287 293 252 260 262 288 281 284 301 223 161 138 146 110 93 228 278 96 113 111 117 133 134 144 165 163 200 182 169 179 192
323 320 324 330 323 318 323 259 333 339 338 239 290 289 248 313 316 287 258 286 236 315 8 72 245 175 155 112 162 187 128 125 125 131 135 164 189 222 206 195 198 199 215 221
322 318 315 311 311 316 297 311 322 320 332 252 218 278 342 351 331 332 309 255 204 71 332 342 196 140 91 349 225 191 158 160 165 167 170 148 148 147 182 203 220 231 244 264
321 310 319 305 266 305 318 310 301 286 274 279 252 148 258 345 355 317 307 238 56 13 13 269 27 346 241 224 210 186 174 182 181 155 145 157 215 258 253 260 244 291 264 8
341 317 325 301 305 294 308 291 244 232 209 231 250 9 293 337 337 313 308 61 148 185 250 249 82 253 254 225 253 201 174 174 159 168 172 210 258 260 239 335 195 287 161 334
360 346 290 294 311 300 260 263 210 207 224 220 234 346 300 334 322 238 286 233 156 58 268 128 279 286 228 173 175 179 185 189 200 231 247 258 252 254 292 248 210 204 200 353
327 306 299 312 319 273 310 276 308 77 228 242 318 325 318 322 283 11 322 272 54 240 139 76 277 256 181 208 214 215 197 196 221 255 249 248 253 247 233 242 263 292 265 240
328 309 289 267 270 17 228 278 311 333 326 357 330 321 321 258 260 141 31 287 240 127 65 220 236 303 215 234 201 204 224 236 233 242 262 268 258 260 240 223 217 228 234 261
307 270 297 170 265 242 206 203 214 250 214 323 325 306 288 316 77 13 54 297 53 45 19 272 309 338 333 261 234 232 234 233 238 253 247 247 232 221 202 215 220 255 315 340
266 269 254 228 242 287 310 306 247 226 207 329 297 301 289 36 80 57 63 332 121 181 215 230 268 279 296 298 275 265 239 232 230 240 252 234 207 176 172 198 244 288 281 281
242 237 265 277 289 299 305 307 329 153 159 289 199 9 359 297 140 148 197 122 228 248 230 262 294 271 296 300 282 290 241 235 248 246 224 234 218 246 287 295 317 257 279 267
237 240 248 261 279 283 296 280 206 188 195 168 121 180 248 139 119 209 177 205 219 272 295 279 296 271 323 298 268 289 273 222 215 223 230 217 219 242 271 270 322 287 262 288
Wind_Speed_850mb
58 52 50 42 29 21 19 6 7 6 9 8 4 2 7 28 25 38 19 14 11 5 9 7 6 10 8 10 4 6 6 9 5 34 11 18 11 5 8 8 8 4 6 7
61 50 51 41 37 32 20 5 5 7 1 3 7 15 21 27 26 24 18 18 16 12 11 9 11 13 30 33 12 6 3 2 1 12 8 9 12 3 8 7 5 3 6 6
67 59 43 40 36 32 26 8 7 8 14 24 3 8 16 22 41 28 31 11 14 13 14 9 10 15 18 25 19 18 13 4 7 10 4 6 1 3 6 12 8 11 6 14
66 68 64 45 34 32 10 15 6 13 9 18 28 21 14 24 20 27 38 15 10 4 10 14 13 10 14 23 25 20 7 2 4 5 7 5 15 19 9 16 10 15 21 29
65 64 66 64 49 31 51 12 11 25 28 18 37 16 13 21 26 16 24 19 11 16 8 1 11 9 5 12 14 14 8 10 14 15 11 6 10 38 22 15 8 11 38 11
65 61 60 61 61 54 33 33 26 15 35 27 12 11 14 23 29 26 26 23 14 16 17 47 46 46 38 21 7 5 6 8 5 9 7 12 12 27 28 7 23 4 17 12
59 58 53 55 55 61 58 49 27 13 6 14 11 28 22 19 25 5 23 33 6 22 62 51 40 28 28 35 29 25 6 5 5 7 6 6 8 17 19 21 35 28 26 27
52 51 47 46 50 46 59 50 36 10 3 17 28 39 32 28 45 17 17 37 38 42 36 8 12 12 10 8 14 23 21 2 6 6 3 11 11 18 14 16 27 27 28 31
44 42 43 34 42 42 33 45 36 23 11 10 19 17 30 7 11 20 20 43 31 40 8 8 6 6 8 14 6 8 2 7 9 4 5 2 10 7 14 14 10 28 39 27
38 35 36 33 30 30 39 35 34 22 12 11 20 13 9 19 24 4 18 41 26 42 10 8 8 3 2 4 7 8 8 7 8 4 3 5 3 19 13 6 13 10 38 24
34 30 29 31 23 28 33 36 29 25 4 7 14 18 22 22 17 3 26 11 18 12 12 7 6 7 6 5 5 9 4 4 2 5 5 4 11 8 6 8 16 16 20 16
31 29 24 24 27 21 27 32 30 28 3 5 5 10 13 15 17 18 10 4 10 9 6 6 3 5 6 3 5 11 7 4 7 7 8 9 11 16 23 22 17 12 17 15
29 28 26 22 19 22 25 22 27 41 8 5 5 12 6 10 15 17 9 8 7 7 5 7 3 4 4 5 6 6 12 2 7 7 6 2 16 14 17 14 14 15 28 19
29 28 26 24 20 18 20 20 16 29 11 3 7 9 13 15 13 14 19 24 21 17 6 3 4 1 5 3 6 3 6 6 7 4 2 13 20 22 24 24 19 14 13 13
29 28 27 24 21 19 16 9 7 25 15 5 15 26 7 15 16 14 18 29 27 19 7 4 4 3 5 6 4 6 4 7 6 9 18 8 17 10 11 17 15 13 13 13
29 28 27 27 21 15 10 3 8 26 20 5 5 10 15 22 25 25 25 22 23 14 7 6 6 6 6 5 2 8 22 27 18 12 25 22 16 15 14 14 12 18 14 10
30 28 26 24 17 10 8 3 17 21 20 4 8 10 9 10 19 20 30 17 5 5 3 5 4 5 10 6 5 10 29 22 23 25 27 19 20 12 14 13 14 14 13 12
29 27 21 16 13 15 9 15 22 18 12 7 2 8 5 6 10 10 10 11 5 2 4 6 4 7 4 1 14 13 27 21 22 18 14 15 14 12 23 17 17 19 17 17
28 23 25 18 7 7 20 34 26 22 11 5 3 4 6 13 19 14 12 7 7 2 4 5 2 4 3 12 21 34 31 25 18 19 14 15 8 13 21 22 17 12 4 12
32 18 8 4 4 27 28 7 5 6 7 8 6 4 4 19 19 12 9 3 6 1 8 2 5 6 14 12 10 36 32 29 28 30 16 9 9 6 8 3 13 5 2 3
32 19 7 25 24 11 4 6 7 7 4 7 3 14 5 23 5 7 6 3 3 2 6 5 3 6 10 10 18 20 20 19 16 12 10 10 8 4 5 8 8 5 4 4
38 34 35 16 6 5 2 6 7 2 5 2 8 13 14 13 7 2 8 3 3 5 9 5 5 7 9 14 14 12 25 20 13 14 14 13 14 11 11 6 8 11 15 9
28 7 6 5 4 6 4 4 7 5 5 7 19 21 27 8 7 2 3 3 7 6 4 5 8 13 12 9 16 18 18 17 15 15 15 18 18 17 22 17 13 10 9 11
8 5 8 7 7 8 9 10 10 12 8 16 22 30 8 9 6 5 5 6 3 6 6 6 10 19 27 22 21 20 21 23 25 20 16 18 4 9 10 24 22 14 15 14
8 9 7 11 19 20 33 29 12 12 4 6 17 12 3 6 6 3 5 5 1 7 7 6 14 23 39 33 28 29 26 21 24 24 21 15 7 8 15 15 11 13 17 13
9 14 9 21 15 21 32 17 4 14 3 8 2 2 5 3 5 2 5 3 8 8 10 25 30 35 34 46 36 29 38 28 29 27 24 22 14 11 8 17 20 18 13 9
10 16 26 37 34 32 37 22 14 19 10 3 4 1 7 3 3 4 7 9 8 25 36 31 33 31 32 25 37 28 24 34 31 26 18 29 24 14 17 22 13 13 15 12
Wind_Direction_850mb
28 25 15 15 28 30 12 31 41 108 180 23 13 297 260 351 24 29 9 37 12 43 311 301 320 322 250 2 34 302 259 143 204 271 310 73 84 33 61 91 348 356 88 296
29 29 25 32 24 21 14 42 60 105 251 50 328 320 8 52 32 29 7 10 27 351 15 345 25 356 6 20 46 42 9 299 55 303 256 89 27 337 149 91 67 59 123 241
29 29 25 24 16 21 42 47 36 43 45 40 61 39 8 3 21 21 12 14 36 20 360 8 344 359 352 25 25 8 26 126 154 202 20 193 270 275 178 121 129 168 206 161
30 28 29 24 11 3 37 42 42 22 344 15 55 69 359 18 10 351 12 351 10 62 24 354 353 360 332 339 16 14 78 278 330 262 299 336 30 5 246 197 197 170 184 177
29 30 29 31 36 52 59 65 18 62 22 6 53 16 345 17 355 2 347 346 304 72 78 270 292 317 314 264 329 8 345 306 343 307 315 347 71 13 360 16 14 256 168 178
28 29 32 32 36 40 45 46 36 94 12 22 43 20 35 21 16 2 31 13 3 28 341 316 302 292 279 251 323 258 225 181 90 279 266 304 23 356 9 330 6 264 168 189
27 27 33 39 40 45 48 39 34 76 1 45 30 22 18 11 4 331 351 2 44 320 331 325 315 309 286 99 35 30 360 125 116 224 333 212 158 8 357 39 22 21 82 113
21 25 29 34 38 42 44 42 46 86 93 21 15 11 4 8 5 353 340 350 330 330 308 330 359 340 29 76 40 25 16 32 56 85 339 119 3 8 356 348 38 52 66 75
12 22 26 33 31 35 48 44 37 54 92 348 24 342 2 355 338 339 332 348 359 7 7 26 46 9 306 9 11 15 6 57 98 6 81 154 227 254 348 343 6 5 79 50
9 18 26 29 34 43 37 42 41 56 92 49 18 24 323 5 359 293 310 341 343 9 13 22 33 8 255 54 306 328 340 3 82 62 141 294 254 268 311 162 201 134 120 130
8 12 17 22 33 35 32 42 29 23 88 61 26 10 12 6 6 74 315 360 358 10 29 32 335 16 342 18 1 326 52 72 16 43 61 334 314 299 218 163 151 123 124 129
1 2 2 7 19 19 23 29 33 11 61 20 4 340 8 353 9 11 14 28 351 8 55 23 19 354 6 354 347 330 26 148 157 128 209 248 337 78 124 149 161 168 172 150
351 348 349 347 356 0 7 9 6 22 342 320 298 323 303 336 349 1 20 302 308 331 17 150 178 25 106 3 311 358 354 118 97 75 318 343 63 125 137 149 145 151 187 159
343 343 340 335 336 334 338 351 351 0 353 282 287 249 306 255 332 305 310 303 284 271 294 149 138 171 166 245 226 121 255 11 131 45 307 79 113 112 114 127 120 138 133 169
334 337 336 331 329 328 328 285 333 352 4 268 287 305 298 237 264 288 285 282 292 262 210 170 212 174 75 350 63 332 334 176 125 215 206 182 140 135 156 134 138 153 153 173
327 329 331 332 327 338 353 199 258 335 349 270 314 287 293 252 260 262 288 281 284 301 223 161 138 146 110 93 228 278 96 113 111 117 133 134 144 165 163 200 182 169 179 192
323 320 324 330 323 318 323 259 333 339 338 239 290 289 248 313 316 287 258 286 236 315 8 72 245 175 155 112 162 187 128 125 125 131 135 164 189 222 206 195 198 199 215 221
322 318 315 311 311 316 297 311 322 320 332 252 218 278 342 351 331 332 309 255 204 71 332 342 196 140 91 349 225 191 158 160 165 167 170 148 148 147 182 203 220 231 244 264
321 310 319 305 266 305 318 310 301 286 274 279 252 148 258 345 355 317 307 238 56 13 13 269 27 346 241 224 210 186 174 182 181 155 145 157 215 258 253 260 244 291 264 8
341 317 325 301 305 294 308 291 244 232 209 231 250 9 293 337 337 313 308 61 148 185 250 249 82 253 254 225 253 201 174 174 159 168 172 210 258 260 239 335 195 287 161 334
360 346 290 294 311 300 260 263 210 207 224 220 234 346 300 334 322 238 286 233 156 58 268 128 279 286 228 173 175 179 185 189 200 231 247 258 252 254 292 248 210 204 200 353
327 306 299 312 319 273 310 276 308 77 228 242 318 325 318 322 283 11 322 272 54 240 139 76 277 256 181 208 214 215 197 196 221 255 249 248 253 247 233 242 263 292 265 240
328 309 289 267 270 17 228 278 311 333 326 357 330 321 321 258 260 141 31 287 240 127 65 220 236 303 215 234 201 204 224 236 233 242 262 268 258 260 240 223 217 228 234 261
307 270 297 170 265 242 206 203 214 250 214 323 325 306 288 316 77 13 54 297 53 45 19 272 309 338 333 261 234 232 234 233 238 253 247 247 232 221 202 215 220 255 315 340
266 269 254 228 242 287 310 306 247 226 207 329 297 301 289 36 80 57 63 332 121 181 215 230 268 279 296 298 275 265 239 232 230 240 252 234 207 176 172 198 244 288 281 281
242 237 265 277 289 299 305 307 329 153 159 289 199 9 359 297 140 148 197 122 228 248 230 262 294 271 296 300 282 290 241 235 248 246 224 234 218 246 287 295 317 257 279 267
237 240 248 261 279 283 296 280 206 188 195 168 121 180 248 139 119 209 177 205 219 272 295 279 296 271 323 298 268 289 273 222 215 223 230 217 219 242 271 270 322 287 262 288